Weather History for KBPI - November, 2012

Change the Weather History Date:

Saturday, November 17, 2012

  Actual Average Record
Temperature  
Mean Temperature 29 °F 23 °F  
Max Temperature 41 °F 37 °F 60 °F (1999)
Min Temperature 17 °F 9 °F -16 °F (1978)
Degree Days  
Heating Degree Days 36 42  
Month to date heating degree days 578 641  
Since 1 July heating degree days 1708 2221  
Cooling Degree Days 0 0  
Month to date cooling degree days 0 0  
Year to date cooling degree days 67 35  
Moisture  
Dew Point 27 °F    
Average Humidity 80    
Maximum Humidity 96    
Minimum Humidity 64    
Precipitation  
Precipitation T in 0.01 in 0.15 in (1988)
Month to date precipitation 0.04 0.13  
Year to date precipitation 2.54 6.10  
Sea Level Pressure  
Sea Level Pressure 30.10 in    
Wind  
Wind Speed 4 mph (ESE)    
Max Wind Speed 13 mph    
Max Gust Speed 16 mph    
Visibility 9 miles    
Events Rain , Snow    
T = Trace of Precipitation, MM = Missing Value Source: NWS Daily Summary

Daily Weather History Graph

Daily Weather History Graph

Search for Another Location

Airport or City:

Trip Planner

Search our weather history database for the weather conditions in past years. The results will help you decide how hot, cold, wet, or windy it might be!

Date:

Astronomy

Nov. 17, 2012 Rise Set
Actual Time 7:14 AM MST 4:55 PM MST
Civil Twilight 6:44 AM MST 5:26 PM MST
Nautical Twilight 6:10 AM MST 6:00 PM MST
Astronomical Twilight 5:36 AM MST 6:33 PM MST
Moon 11:02 AM MST (11/17) 9:10 PM MST (11/17)
Length of Visible Light 10h 41m
Length of Day
9h 40m
Waxing Crescent, 21% of the Moon is Illuminated
Nov 17
Waxing Crescent
Nov 20
First Quarter
Nov 28
Full
Dec 6
Last Quarter
Dec 13
New

Hourly Weather History & Observations

Time (MST) Temp. Windchill Dew Point Humidity Pressure Visibility Wind Dir Wind Speed Gust Speed Precip Events Conditions
12:53 AM 19.9 °F 14.9 °F 18.0 °F 92% 30.18 in 10.0 mi Variable 3.5 mph - N/A   Partly Cloudy
1:53 AM 19.9 °F 11.1 °F 17.1 °F 89% 30.18 in 10.0 mi ENE 6.9 mph - N/A   Clear
2:53 AM 21.0 °F 16.2 °F 18.0 °F 88% 30.18 in 10.0 mi ENE 3.5 mph - N/A   Clear
3:53 AM 19.9 °F - 17.1 °F 89% 30.17 in 10.0 mi Calm Calm - N/A   Clear
4:53 AM 19.4 °F 14.3 °F 15.8 °F 86% 30.15 in 10.0 mi East 3.5 mph - N/A   Overcast
5:53 AM 21.0 °F - 19.0 °F 92% 30.20 in 10.0 mi Calm Calm - N/A   Overcast
6:53 AM 21.9 °F 17.2 °F 19.0 °F 89% 30.20 in 10.0 mi ENE 3.5 mph - N/A   Overcast
7:53 AM 23.0 °F 18.4 °F 19.9 °F 88% 30.21 in 10.0 mi NE 3.5 mph - N/A   Overcast
8:53 AM 25.0 °F 20.7 °F 21.0 °F 85% 30.22 in 10.0 mi NNE 3.5 mph - N/A   Overcast
9:53 AM 28.9 °F 25.2 °F 25.0 °F 85% 30.21 in 10.0 mi East 3.5 mph - N/A   Overcast
10:53 AM 32.0 °F 28.7 °F 25.0 °F 75% 30.20 in 10.0 mi East 3.5 mph - 0.00 in   Overcast
11:39 AM 33.8 °F 29.6 °F 26.6 °F 75% 30.14 in 10.0 mi ESE 4.6 mph - N/A   Overcast
11:53 AM 35.1 °F - 27.0 °F 72% 30.16 in 10.0 mi Calm Calm - N/A   Overcast
12:18 PM 35.6 °F 32.8 °F 28.4 °F 75% 30.13 in 10.0 mi ESE 3.5 mph - N/A   Overcast
12:53 PM 39.9 °F 33.9 °F 28.9 °F 65% 30.12 in 10.0 mi South 9.2 mph - N/A   Overcast
1:53 PM 39.0 °F 34.8 °F 30.0 °F 70% 30.11 in 10.0 mi SE 5.8 mph - N/A   Mostly Cloudy
2:53 PM 39.9 °F 35.8 °F 30.0 °F 68% 30.08 in 10.0 mi SE 5.8 mph - N/A   Overcast
3:53 PM 39.0 °F 34.8 °F 30.0 °F 70% 30.09 in 10.0 mi East 5.8 mph - N/A   Overcast
4:51 PM 37.4 °F 33.8 °F 30.2 °F 75% 30.07 in 10.0 mi East 4.6 mph - N/A   Overcast
4:53 PM 37.9 °F 33.5 °F 30.0 °F 73% 30.09 in 10.0 mi East 5.8 mph - N/A   Overcast
5:53 PM 36.0 °F 30.3 °F 30.0 °F 79% 30.08 in 10.0 mi SSE 6.9 mph - 0.00 in Rain Light Rain
6:31 PM 35.6 °F 31.7 °F 33.8 °F 93% 30.07 in 10.0 mi SW 4.6 mph - 0.00 in Rain Light Rain
6:53 PM 35.1 °F 30.1 °F 32.0 °F 89% 30.08 in 10.0 mi South 5.8 mph - 0.00 in   Overcast
7:04 PM 35.6 °F 31.7 °F 33.8 °F 93% 30.06 in 10.0 mi SSE 4.6 mph - N/A   Overcast
7:39 PM 33.8 °F 29.6 °F 32.0 °F 93% 30.05 in 10.0 mi SSW 4.6 mph - N/A   Overcast
7:53 PM 34.0 °F - 32.0 °F 92% 30.06 in 9.0 mi Calm Calm - N/A   Overcast
8:18 PM 33.8 °F - 30.2 °F 87% 30.04 in 7.0 mi Calm Calm - N/A   Overcast
8:53 PM 33.1 °F 28.7 °F 30.9 °F 92% 30.06 in 6.0 mi NE 4.6 mph - N/A   Overcast
9:02 PM 33.8 °F 30.8 °F 30.2 °F 87% 30.04 in 6.0 mi East 3.5 mph - N/A   Overcast
9:53 PM 32.0 °F 27.5 °F 30.0 °F 92% 30.02 in 10.0 mi East 4.6 mph - 0.00 in   Overcast
10:12 PM 32.0 °F - 30.2 °F 93% 30.02 in 10.0 mi Calm Calm - N/A   Overcast
10:42 PM 33.8 °F 28.6 °F 30.2 °F 87% 30.02 in 4.0 mi SSE 5.8 mph - 0.00 in Snow Light Snow
10:53 PM 33.1 °F 27.7 °F 30.9 °F 92% 29.99 in 5.0 mi SSE 5.8 mph - 0.00 in Snow Light Snow
11:18 PM 33.8 °F - 32.0 °F 93% 30.02 in 4.0 mi Calm Calm - 0.00 in Rain Light Rain
11:42 PM 33.8 °F 28.6 °F 32.0 °F 93% 30.02 in 3.0 mi South 5.8 mph - 0.00 in Rain Light Rain
11:47 PM 32.0 °F 27.5 °F 32.0 °F 100% 30.02 in 1.8 mi South 4.6 mph - 0.00 in Rain Light Rain
11:53 PM 32.0 °F 27.5 °F 32.0 °F 100% 30.02 in 1.0 mi South 4.6 mph - N/A Rain Light Rain